FENGYUN 1C DEB, 29851

Orbit data source: Space-Track

FENGYUN 1C DEB, 29851 is space debris in SSO originally from a launch on Mon, 10 May 1999 UTC launched from the Taiyaun Space Center, China (TSC). Fengyun 1C debris stems from the Chinese weather satellite Fengyun-1C, which was intentionally destroyed by a Chinese anti-satellite missile in 2007. This event dramatically increased the amount of space debris, with thousands of trackable fragments posing hazards to satellites and human spaceflight. The Fengyun 1C debris cloud has become a focal point in discussions about space sustainability and the need for international regulations to prevent the creation of new debris.

Loading next visibility...
Identifier
29851, 1999-025EV
Orbit
SSO
Country
Flag of CNCN / PRC
Related business
Manufacturer
Unknown
Mission
Spacecraft
Bus & Motor
Unknown
Mass
Unknown
Launch date (UTC)
1999-05-10 (27 years ago)
Launch vehicle
Unknown
Launch site
Taiyaun Space Center, China (TSC)
Object type
Payload
Rocket body
Debris
Shape & HBR
Unknown shape, 0.1 m
Radar Cross Section
Medium (>0.1 m² and <1 m²)

Expand to show TLE details & history
Last TLE update: 22 hours ago

TLE from 22 hours ago
0 FENGYUN 1C DEB
1 29851U 99025EV  26171.41189310  .00000135  00000-0  15037-3 0  9992
2 29851  99.5560 220.6897 0143152  87.0784 290.5036 13.83745965979905
Epoch: 2026-06-20T09:53Z
TLE epoch observation values (Epoch: 2026-06-20T09:53:07.563Z)
Latitude
15.78857°
Longitude
161.06722°
Altitude
917.369 km
Speed
7.412 km/s
True Right ascension
14h 31m 54s
True Declination
15° 42' 03"
Sunlit
Object was in daylight at epoch
Visualization orbit readout
Latitude
Unknown
Longitude
Unknown
Altitude
Unknown
Speed
Unknown
Apparent Right ascension
Unknown
Apparent Declination
Unknown
Sunlit
N/A
Visualization observer readout
Local Sidereal Time
18:51:42
Azimuth
Unknown
Elevation
Unknown
Doppler factor
Unknown
Orbital elements
Apogee altitude
1,052.752 km
Perigee altitude
843.005 km
Semi-major axis
7,326.015 km
Eccentricity
0.01432
Inclination
99.556°
RAAN
220.6897°
Arg. of periapsis
87.0784°
True anomaly
288.95762°
Mean anomaly
290.5036°
Eccentric anomaly
289.73156°
Mean motion
3.46132 °/min
Orbital period
104.01 mins
BSTAR
0.00015037
Loading maneuver chart data...
Computing Atmospheric mass density...

Documentation

Showing up to 5 results
|